Wind_Speed
18 18 18 18 17 16 16 15 14 14 15 15 17 18 19 19 19 19 20 19 18 18 17 16 16 16 16 16 15 15 15 14 14 15 15 15 14 14 14 15 15 16 17 17 16 16 16 16 16 16 17 18 18 18 18 18 18 18 18 17 17 18 19 21 22 22 22 21 21 20 20 19 19 20 21 21 22 22 24 25 25 26 27 28 29
19 19 19 18 18 16 16 16 15 14 15 15 17 18 19 19 18 19 19 19 18 17 16 16 16 16 16 16 15 15 15 15 15 15 15 15 15 14 14 15 15 16 16 16 16 16 15 15 16 16 17 18 18 18 18 18 18 18 18 17 18 18 20 22 23 23 23 22 21 21 20 19 19 21 22 23 23 24 25 26 26 27 28 29 30
19 20 19 19 18 17 16 16 15 15 15 15 17 18 19 18 18 18 19 18 17 16 16 16 16 16 16 15 15 16 16 15 15 14 14 15 15 14 15 15 16 16 16 16 15 15 15 15 16 17 18 18 18 18 18 19 19 18 18 18 18 19 21 23 24 24 24 24 23 22 21 20 21 22 24 25 25 25 26 27 27 28 29 29 30
20 20 19 19 18 16 15 16 15 15 15 15 17 18 19 19 18 18 18 17 16 16 16 16 16 16 16 16 16 16 16 16 15 15 15 15 14 14 15 16 16 15 15 15 15 14 14 15 15 17 18 18 18 18 19 19 19 19 18 19 19 20 22 23 24 24 25 25 24 23 22 22 22 24 26 27 27 27 27 28 28 28 29 29 30
19 19 18 18 18 16 15 15 15 15 15 16 17 18 19 19 18 18 17 16 16 16 16 16 17 17 16 16 17 17 17 16 16 15 15 14 14 15 16 16 16 15 15 14 14 14 14 15 16 17 17 18 19 19 19 19 19 19 19 19 20 21 22 23 24 24 25 25 25 25 24 24 24 25 27 28 28 28 29 29 29 29 30 30 31
19 18 17 17 17 15 14 15 15 14 15 16 17 18 19 19 19 18 17 16 16 17 17 17 17 18 17 17 18 18 18 17 16 16 15 15 16 17 17 16 15 15 14 14 14 14 14 15 16 17 17 18 19 19 19 19 19 19 20 20 21 22 23 23 24 24 25 25 26 26 26 25 25 26 28 29 29 29 30 30 30 31 31 32 33
18 17 16 16 16 14 14 14 15 14 15 16 17 18 19 20 19 18 17 16 17 18 18 18 18 18 18 18 18 19 18 17 17 16 15 16 17 17 16 16 15 15 14 14 14 14 14 15 16 17 18 18 19 19 19 19 20 20 21 21 22 22 23 24 25 25 25 25 26 27 27 26 26 27 28 29 30 30 31 32 33 33 33 34 35
17 16 16 15 15 13 13 14 14 14 15 16 17 19 19 19 18 17 17 17 17 18 19 19 19 19 18 18 19 19 19 18 17 16 17 18 18 17 16 16 15 15 14 14 15 15 15 16 17 17 18 19 19 20 20 20 21 21 22 22 22 23 24 25 26 27 27 26 26 27 27 27 27 27 28 29 30 31 33 34 34 35 36 36 37
17 16 15 15 14 13 12 13 14 14 15 16 17 18 19 19 18 17 17 17 18 19 19 19 19 18 18 19 19 20 20 19 18 18 18 18 17 17 17 16 16 15 15 15 15 15 16 16 17 18 18 19 20 20 20 21 21 22 22 23 23 24 24 25 27 28 28 27 27 27 27 28 28 28 29 29 30 31 33 34 35 36 37 37 38
17 16 15 15 14 13 12 13 14 14 15 16 17 18 19 19 18 17 17 18 19 19 20 19 18 18 18 19 20 21 20 19 19 19 19 18 18 18 17 17 16 15 15 15 16 16 16 17 18 18 19 20 20 21 21 22 22 23 23 23 24 25 25 26 27 28 28 29 28 28 28 29 29 29 30 30 30 31 33 34 35 36 37 38 38
18 16 15 15 15 13 12 13 13 14 15 16 17 18 18 18 18 18 18 18 19 20 20 19 18 17 18 19 20 21 21 20 20 19 19 19 19 18 18 17 16 16 16 16 16 17 17 18 19 19 20 21 21 22 22 23 23 24 24 24 25 26 27 27 28 29 29 29 30 30 30 30 30 31 31 32 32 32 33 34 35 36 37 38 39
19 17 16 16 16 14 13 13 13 14 15 16 17 17 18 18 19 19 19 19 20 21 21 20 18 17 17 19 21 22 22 21 20 20 20 20 20 19 19 18 17 17 17 17 17 18 18 19 20 21 22 23 23 23 23 24 25 25 25 25 26 27 28 29 29 30 30 30 31 31 32 32 32 32 33 33 33 34 34 35 36 37 38 38 39
20 19 17 17 17 15 14 13 14 15 15 16 16 17 18 19 19 20 20 20 20 22 21 20 19 17 17 19 21 22 22 22 21 21 21 21 21 20 19 18 18 17 17 18 18 19 20 20 21 22 23 24 24 25 25 26 27 27 27 27 27 28 29 29 30 31 31 31 32 33 33 34 34 34 34 34 35 36 36 37 37 37 38 38 39
21 20 19 17 17 16 15 14 14 15 15 15 16 17 19 19 20 21 21 21 21 21 22 20 19 18 18 20 21 22 23 22 21 21 21 21 21 21 20 19 18 18 18 18 19 19 20 21 22 23 24 25 25 26 26 27 27 28 28 28 28 29 29 30 31 32 32 32 32 33 34 35 35 35 35 35 36 37 38 38 38 39 39 40 40
22 22 20 19 18 17 16 15 15 14 14 15 15 17 20 21 21 21 21 21 21 21 22 21 20 19 19 21 22 23 23 22 22 22 21 22 22 21 20 19 19 19 19 19 20 20 21 22 23 24 24 25 25 26 26 27 27 28 28 29 29 30 30 31 32 32 33 33 33 34 34 35 36 36 36 37 37 38 39 39 40 40 41 41 41
23 23 22 20 19 18 17 16 15 14 14 15 15 18 20 22 21 21 21 22 22 22 22 23 21 20 20 22 23 23 23 23 23 23 22 22 22 21 20 19 20 20 20 20 20 20 21 22 23 24 25 25 26 26 27 27 27 28 29 30 30 31 31 32 33 33 34 34 34 34 35 35 36 37 37 38 38 39 40 41 41 41 42 42 42
24 24 23 21 20 19 18 17 16 15 15 15 16 18 20 21 21 22 22 23 23 23 23 24 22 20 21 23 24 24 24 24 24 23 22 22 22 21 20 19 20 21 21 21 21 21 22 23 23 24 25 26 26 27 27 27 27 28 29 31 32 32 33 33 34 34 35 35 35 35 35 36 37 37 38 38 39 40 41 42 43 43 43 43 43
25 25 24 22 21 20 19 18 17 16 16 16 17 18 19 20 21 22 23 24 25 24 23 23 22 22 23 24 25 25 25 26 25 24 23 23 22 22 21 20 20 21 22 21 22 22 22 23 24 24 26 26 27 27 27 27 28 29 30 32 33 33 34 35 36 36 37 37 37 36 37 37 37 38 38 39 40 41 42 43 44 44 44 44 44
26 25 24 23 21 21 19 18 17 17 17 17 18 19 19 20 21 22 23 24 25 24 23 23 23 22 23 24 25 26 27 27 25 24 24 24 23 22 21 21 21 22 22 22 22 23 24 24 24 25 26 27 27 27 28 29 30 31 32 33 34 35 35 36 37 38 39 39 39 39 39 39 39 39 40 41 42 44 45 46 45 45 44 44 44
25 25 25 23 22 21 20 19 18 17 18 18 19 19 19 20 21 22 23 23 23 24 23 23 24 24 24 25 27 28 30 28 25 24 24 24 24 23 22 21 22 23 23 23 23 24 25 25 25 26 26 27 28 29 30 31 32 33 34 35 36 37 37 38 39 40 41 41 42 41 41 41 41 42 43 44 45 47 49 49 48 46 44 43 44
25 25 25 24 23 22 21 20 19 18 18 19 19 18 19 20 21 22 23 23 22 23 24 24 25 25 26 27 29 32 33 29 25 25 24 25 24 24 23 23 22 23 24 24 23 24 25 26 27 27 28 29 30 31 32 33 34 35 37 38 39 39 40 40 41 42 43 43 44 43 43 43 43 44 46 47 48 50 52 51 49 46 42 42 44
24 25 25 24 24 23 22 20 19 18 19 19 18 17 19 21 21 22 23 22 22 23 24 24 25 25 27 28 29 32 31 25 23 25 25 25 24 24 24 23 23 23 24 24 24 25 26 28 29 29 30 31 33 34 35 36 36 37 39 40 41 41 42 42 43 44 45 45 45 46 46 45 45 46 48 50 51 53 55 51 46 42 40 42 44
24 25 25 25 25 24 22 20 19 19 19 18 16 17 19 21 21 22 22 22 22 22 23 24 24 24 26 27 29 30 27 22 22 24 25 25 25 24 24 24 23 23 24 24 24 25 27 29 30 31 32 33 34 36 36 37 38 39 41 42 42 43 44 45 46 46 47 47 48 48 47 47 47 47 49 51 52 54 54 47 42 41 42 43 44
25 26 26 26 26 25 22 20 19 19 18 17 17 18 19 20 21 23 23 22 21 22 23 25 25 25 26 27 28 27 23 21 22 23 25 25 25 25 25 24 24 23 24 25 25 26 28 29 31 32 33 35 36 37 37 38 39 41 42 42 43 44 45 46 47 48 49 48 48 50 49 48 48 48 50 52 51 53 51 44 41 43 44 44 44
26 27 26 26 26 25 22 20 19 19 18 19 18 18 17 19 21 22 22 22 22 23 24 26 26 26 26 27 26 24 21 21 22 23 24 25 26 26 25 25 25 23 24 25 26 27 28 30 32 33 34 36 36 37 38 39 40 41 42 43 44 45 46 47 47 48 48 46 47 50 52 52 51 50 52 52 51 51 48 43 43 45 45 44 44
27 27 26 26 27 24 21 20 19 18 18 19 18 17 17 18 19 20 21 21 23 24 25 26 26 26 26 25 24 22 22 22 22 22 24 25 26 26 26 25 25 24 24 25 26 28 29 30 32 34 35 36 37 38 39 40 41 41 42 43 44 45 46 46 46 46 45 44 48 52 53 53 53 52 52 51 49 49 46 44 46 46 45 45 44
27 27 27 27 26 24 21 20 19 18 19 18 17 17 17 17 19 19 20 22 23 24 25 25 25 25 24 24 23 23 23 23 22 22 23 25 25 26 26 26 26 25 25 26 27 28 29 31 33 35 36 37 38 39 40 41 41 41 42 42 43 45 47 47 47 45 44 46 50 51 51 51 51 49 48 48 48 47 45 45 47 47 46 45 44
27 27 27 27 26 23 21 20 18 18 19 18 17 17 17 17 18 19 20 22 23 24 25 25 24 23 23 23 23 24 24 24 23 22 23 24 25 26 26 26 26 26 26 27 28 29 30 32 34 35 37 38 39 40 41 41 42 42 42 43 44 46 47 48 48 47 45 47 49 49 48 48 48 47 47 47 47 45 45 47 47 46 45 45 45
28 27 27 26 25 23 21 20 19 18 19 18 18 17 17 18 18 19 20 22 23 24 24 24 23 23 23 24 25 25 25 24 23 22 23 24 25 26 26 26 26 26 26 27 29 30 31 33 34 35 37 39 40 41 42 42 43 43 43 44 45 46 47 48 48 47 46 47 47 47 47 47 47 48 46 45 44 45 46 47 46 45 45 45 46
28 27 26 26 25 23 21 20 18 18 18 18 17 17 18 18 18 19 20 22 23 23 23 23 23 23 23 24 25 25 24 24 23 22 23 23 25 25 25 25 25 26 27 28 30 30 32 34 36 36 38 40 42 43 44 44 43 44 44 45 46 47 47 48 47 45 44 45 46 47 47 47 47 45 44 43 45 46 46 45 44 45 46 47 46
27 26 26 25 25 23 21 19 18 18 19 18 17 17 18 18 19 19 20 21 22 23 23 23 24 24 25 25 25 25 24 24 23 23 23 24 25 25 25 25 25 27 28 30 32 31 32 35 37 38 39 41 42 43 43 42 42 44 45 46 46 46 47 47 46 44 44 45 46 46 46 45 44 43 43 44 45 45 44 44 45 47 47 47 46
27 26 26 25 25 23 21 19 19 19 19 18 17 17 17 18 18 19 20 21 22 23 23 24 24 25 26 26 26 26 25 24 23 23 23 24 25 24 25 25 26 27 29 31 33 33 33 36 37 38 40 41 40 40 40 40 42 45 46 46 46 46 47 46 45 45 45 46 46 45 44 42 42 42 43 44 44 44 45 46 47 47 47 46 46
27 26 26 26 26 24 21 20 19 19 19 18 17 17 17 18 18 19 20 20 21 22 23 24 25 26 27 27 26 25 25 23 22 22 23 23 24 24 25 25 26 28 30 32 34 34 35 37 38 40 41 39 38 39 41 42 44 45 46 45 45 45 46 45 45 45 46 45 44 43 42 41 41 41 42 42 43 45 47 48 47 46 46 46 45
28 27 26 26 26 24 21 20 20 20 19 18 18 17 17 18 18 19 19 20 21 22 23 24 25 27 27 26 25 23 22 21 21 22 23 23 24 24 25 26 27 29 31 33 35 35 36 37 39 41 40 38 39 41 43 45 45 46 46 45 44 45 45 45 45 46 45 45 44 43 42 41 40 41 42 43 46 47 47 46 45 45 45 45 43
29 27 27 27 27 25 22 21 21 21 20 19 18 18 18 18 18 19 19 20 21 22 24 25 26 26 25 24 23 21 20 20 21 22 22 23 24 24 25 27 28 30 32 33 35 36 37 38 40 40 39 39 41 43 45 46 47 47 46 45 45 46 44 44 46 46 45 44 43 42 41 41 40 41 43 45 47 46 45 45 44 44 44 44 43
30 29 28 28 28 26 23 22 22 21 20 19 18 18 19 19 18 18 19 20 21 23 24 25 26 25 22 21 20 20 20 20 21 22 23 23 24 25 26 28 29 31 33 34 35 36 38 39 40 40 39 40 43 44 46 47 47 47 46 46 46 45 44 45 46 46 45 43 43 42 42 41 42 43 45 46 46 45 44 44 44 44 44 44 43
31 30 29 29 28 26 24 23 23 22 21 19 19 19 19 19 19 19 19 20 21 22 24 24 24 23 21 20 19 19 20 20 21 22 23 24 24 25 27 29 30 31 33 34 35 36 38 39 40 40 40 42 44 45 47 48 48 47 46 46 45 44 44 46 46 45 44 43 43 43 43 43 44 45 45 45 45 45 45 45 45 45 45 44 44
32 31 31 29 28 27 26 24 24 23 21 20 19 20 20 20 19 19 19 20 21 22 24 24 22 21 20 19 19 19 20 21 22 23 24 24 25 26 28 29 30 31 33 34 34 35 37 39 40 40 41 43 45 46 47 48 48 48 47 46 45 44 44 45 46 46 45 44 44 44 44 44 44 45 45 45 45 46 45 46 46 46 45 45 45
33 33 32 30 29 28 26 25 25 24 22 21 20 21 21 20 20 19 19 20 21 22 23 23 21 20 19 19 19 20 21 22 23 24 24 25 25 27 28 29 30 32 33 34 35 36 37 38 39 40 42 44 46 47 48 48 48 47 46 45 45 45 46 46 46 46 45 44 44 44 44 44 44 45 45 45 46 46 46 46 46 46 46 46 46
34 33 32 30 29 28 27 26 26 24 23 21 21 21 21 20 20 19 19 20 21 22 23 22 21 20 20 20 21 21 22 23 23 24 24 25 26 27 28 30 31 33 34 34 35 37 38 38 40 41 43 46 47 48 48 47 46 45 44 44 45 46 47 46 45 45 45 44 44 44 44 44 44 45 45 46 46 46 47 47 47 47 47 46 46
34 34 33 30 29 29 28 28 26 25 24 22 21 21 21 20 20 19 19 20 21 22 22 22 21 20 21 21 22 23 23 23 23 24 25 26 28 29 29 30 33 34 35 36 37 38 38 39 41 43 45 47 48 48 47 45 44 43 43 44 44 45 45 45 44 43 43 43 43 43 44 44 45 46 46 47 47 47 48 48 47 47 47 47 46
35 35 33 31 29 30 29 28 27 26 25 23 21 20 20 20 20 19 20 20 21 22 22 22 21 21 22 22 23 23 24 24 24 25 27 28 29 30 30 32 34 35 37 38 38 38 39 41 43 45 46 48 48 47 45 43 42 42 43 43 44 44 44 44 43 42 42 43 43 44 44 45 46 46 47 47 48 48 48 48 47 47 46 46 45
35 35 34 31 30 30 30 29 28 27 25 23 21 20 20 20 20 19 20 20 21 22 22 22 23 23 23 23 24 24 25 25 26 27 28 29 30 30 32 34 35 36 37 38 38 39 41 43 44 46 47 47 46 44 43 41 41 42 42 43 43 43 43 42 42 42 42 43 44 44 45 45 46 47 48 48 48 47 47 46 46 45 45 44 44
35 36 35 32 31 31 31 30 29 28 26 23 21 20 21 20 20 20 20 21 21 22 23 23 23 24 24 24 25 26 26 27 28 29 30 30 32 32 33 34 35 36 37 38 39 41 43 45 46 47 47 45 43 42 41 41 41 41 42 42 41 41 41 41 41 41 42 43 44 44 45 46 47 48 48 48 47 46 45 44 43 43 43 43 43
36 36 35 33 32 32 32 30 30 28 26 23 21 21 21 21 21 21 21 21 21 22 23 23 24 25 25 26 27 27 28 29 30 31 31 32 33 33 33 34 34 35 36 38 40 42 44 46 46 45 45 43 41 40 41 41 41 41 41 41 40 40 40 40 41 42 43 43 44 45 46 47 47 48 48 47 46 45 44 43 42 42 42 43 42
36 37 36 34 32 33 32 31 31 29 26 23 22 22 22 21 21 21 21 22 22 23 23 24 25 26 26 27 28 29 30 31 31 32 32 33 33 33 33 33 34 36 37 39 41 43 45 46 45 44 43 42 41 41 41 41 41 41 40 39 39 39 39 40 41 42 43 44 45 46 46 47 47 47 46 46 44 44 44 42 41 41 42 43 44
37 37 37 35 33 33 33 32 31 29 26 24 23 23 22 22 22 22 23 23 23 23 23 24 25 27 28 28 29 30 30 31 32 32 32 32 32 32 33 34 35 37 39 41 43 44 44 44 43 43 42 41 41 41 41 41 40 39 38 38 39 39 39 40 42 43 44 44 44 45 45 46 46 45 44 43 42 42 43 42 41 40 42 44 45
37 38 38 36 34 34 34 33 31 30 27 24 24 23 23 23 23 24 24 24 24 24 24 25 26 27 28 29 29 30 31 31 32 32 32 32 32 33 34 35 37 40 41 43 44 43 43 42 41 41 41 41 41 41 41 40 39 38 38 38 38 38 39 41 42 42 43 43 43 44 44 44 44 43 41 41 41 41 42 42 42 42 43 45 45
38 39 38 37 35 35 35 34 32 31 28 25 24 24 24 24 25 25 25 25 24 24 25 26 27 28 29 29 31 31 31 31 31 32 32 32 33 34 36 38 40 41 42 42 42 42 41 40 40 40 40 40 40 40 39 38 38 37 37 37 37 38 39 40 40 40 41 41 41 42 43 42 42 41 40 40 41 41 41 42 42 42 43 45 45
39 39 39 39 37 36 35 35 33 31 28 25 25 25 25 26 26 26 26 25 25 25 26 27 28 29 30 31 32 32 30 30 31 32 32 33 35 37 38 39 41 41 41 40 40 40 40 39 40 40 40 40 39 38 37 37 37 37 37 36 37 37 38 38 38 39 40 41 41 41 41 41 41 41 41 41 41 41 42 43 43 43 44 45 45
40 40 41 40 39 37 36 35 34 31 28 26 25 26 27 26 26 26 26 26 26 26 27 29 30 32 33 33 33 31 30 31 32 32 33 35 37 39 39 40 40 40 39 39 39 39 39 39 39 39 39 38 37 37 36 36 36 37 36 36 36 36 35 36 37 38 40 41 40 41 41 41 41 41 41 41 42 42 43 44 43 42 43 44 44
Wind_Direction
326 320 314 310 308 307 307 304 301 299 297 296 292 286 282 280 281 283 284 283 283 282 285 290 292 291 290 290 290 286 284 283 281 280 280 280 280 279 280 282 285 289 293 298 302 307 310 312 314 316 319 322 326 328 327 325 323 322 320 318 320 325 328 328 326 324 322 322 322 324 326 325 324 323 321 320 317 315 313 312 312 313 314 314 314
321 318 313 310 307 306 305 302 300 299 297 296 292 288 285 284 284 285 284 282 280 281 287 291 289 287 287 288 287 285 284 282 281 280 279 279 280 280 280 281 285 290 296 300 304 307 308 310 313 317 321 325 327 328 326 323 321 320 317 316 319 323 325 326 325 324 323 324 324 324 324 325 325 324 323 322 319 316 315 315 315 315 315 315 314
316 313 311 309 306 305 303 300 298 298 296 295 292 289 289 288 288 287 285 281 280 284 289 289 286 285 285 286 285 284 284 283 282 280 278 277 278 280 281 283 287 291 295 300 303 304 305 309 314 319 324 326 326 325 323 321 319 318 315 315 318 322 324 325 325 325 325 325 324 322 323 326 326 324 323 323 320 318 317 316 315 315 314 314 313
313 310 309 308 304 303 301 298 297 297 295 294 293 291 292 292 291 289 285 281 283 288 290 288 287 286 286 287 286 286 286 285 283 278 275 275 277 280 281 283 287 291 295 298 299 299 303 308 315 321 324 325 324 324 322 320 319 316 315 316 319 321 322 324 325 325 326 326 323 322 326 329 326 323 323 323 320 319 317 315 314 314 313 313 313
311 309 307 307 304 301 300 297 295 296 295 295 294 294 295 296 294 290 285 283 286 291 292 291 289 289 290 290 290 290 289 286 282 277 276 276 277 278 280 283 286 291 295 296 296 297 302 309 316 322 323 323 323 323 322 321 318 316 316 317 319 320 321 323 325 326 326 326 325 325 328 329 326 323 322 322 319 317 316 314 314 314 314 314 314
310 309 307 306 303 299 298 295 294 295 296 296 296 296 298 297 294 290 286 284 288 292 294 293 293 293 293 293 293 292 289 285 281 278 278 277 276 276 279 283 286 291 294 294 294 297 302 310 317 320 321 322 323 324 323 322 319 318 318 319 320 320 321 322 324 326 326 326 327 328 329 327 325 323 322 321 319 316 315 314 314 314 314 314 313
308 308 307 306 302 297 296 294 293 295 296 297 298 298 298 296 293 290 287 285 288 292 294 294 295 295 295 295 294 292 288 284 281 280 278 276 275 277 280 284 288 292 294 293 294 297 303 310 315 317 319 321 323 324 324 322 321 319 320 321 322 321 321 322 324 325 325 327 329 329 328 327 325 323 322 322 320 318 317 315 315 314 313 313 312
305 307 306 305 300 295 294 293 293 295 296 297 298 298 296 294 292 290 288 287 289 292 293 296 297 297 296 295 293 289 285 283 282 280 278 276 277 280 284 288 291 293 294 294 295 298 303 308 311 313 317 320 322 323 324 322 321 321 322 323 323 323 323 323 323 323 323 326 329 328 326 326 325 323 323 324 323 322 320 317 315 314 312 312 311
299 303 303 302 297 292 291 291 293 295 295 295 295 295 294 292 290 290 289 289 290 292 294 298 299 298 297 295 292 288 285 284 282 280 280 281 283 285 288 291 292 294 294 294 295 298 302 304 307 310 315 318 320 322 323 323 322 323 323 324 325 324 324 323 322 321 322 324 326 325 324 324 324 323 323 324 325 325 323 321 317 315 313 312 311
293 297 299 299 295 288 287 289 291 293 293 293 292 291 291 291 289 289 290 291 291 292 296 300 299 297 296 295 291 288 285 283 281 281 283 286 289 291 292 293 293 294 293 293 295 298 300 301 304 307 311 314 317 320 321 322 322 322 323 324 323 323 323 322 321 321 322 323 323 322 321 321 321 321 322 324 325 325 325 323 320 318 316 314 313
288 292 294 295 292 286 284 286 289 290 290 290 290 289 290 291 290 289 290 291 292 292 296 300 298 295 295 295 290 287 284 282 282 284 287 290 293 294 293 293 293 293 293 294 296 298 299 299 301 304 307 309 313 316 318 319 319 319 320 321 321 320 320 320 320 321 322 322 321 320 320 319 319 319 321 323 324 324 324 323 322 321 319 317 315
285 288 289 290 290 285 281 281 285 287 287 288 288 290 292 293 292 290 289 290 291 292 295 299 298 295 295 293 289 285 283 283 284 286 289 292 294 293 292 291 291 291 292 294 296 297 297 297 300 302 304 307 310 312 315 316 317 317 318 319 319 318 319 319 319 320 321 321 320 319 319 318 318 319 321 322 322 322 322 322 322 322 321 319 316
283 284 285 286 288 285 279 277 279 282 284 285 287 289 292 293 292 289 288 288 288 290 293 297 297 294 292 290 287 286 285 287 288 290 291 293 293 291 289 289 289 290 291 294 296 296 297 298 300 302 303 305 308 310 313 314 315 316 316 317 317 318 318 318 319 320 320 319 319 318 318 317 318 319 320 321 321 320 320 319 320 320 320 319 317
281 282 282 283 285 284 277 272 274 277 282 284 285 287 289 289 290 289 288 287 286 288 291 294 294 291 288 286 286 287 288 290 291 292 292 292 292 289 287 287 288 289 292 295 297 297 297 299 300 302 303 305 307 310 312 314 314 314 315 316 317 318 319 319 320 320 319 318 318 317 317 317 318 319 320 321 320 319 318 318 318 318 318 317 317
279 279 280 280 282 282 277 270 270 275 280 282 283 285 285 285 286 288 289 288 287 287 289 292 292 290 287 285 286 287 289 291 291 292 292 291 290 287 285 286 288 290 293 296 297 297 297 298 300 302 303 305 307 310 312 313 314 314 315 316 317 318 319 320 320 319 318 318 317 318 318 318 319 320 320 320 319 318 317 317 317 317 317 316 315
277 277 278 278 279 280 276 269 268 272 277 279 281 284 286 286 284 283 287 289 289 289 290 291 291 289 287 285 286 287 289 290 290 291 291 291 288 285 285 286 288 290 293 295 296 295 296 297 300 301 303 305 307 309 311 312 314 315 316 317 317 319 319 319 319 318 317 317 317 317 318 319 320 320 320 319 318 317 317 316 316 316 316 316 314
277 276 277 277 277 278 275 270 268 270 274 278 280 282 285 288 285 282 285 289 291 290 290 291 292 290 287 286 286 287 287 289 290 290 290 289 287 284 283 285 287 289 291 293 294 294 295 297 299 301 303 305 307 309 311 312 314 316 317 317 318 318 318 318 317 317 316 316 316 317 318 320 321 321 320 320 319 317 316 315 315 314 315 315 314
277 276 276 276 275 276 274 270 268 269 273 277 279 279 281 284 285 284 286 290 291 290 288 290 293 291 289 288 287 287 287 287 288 289 289 288 285 282 281 283 285 287 290 292 293 294 295 297 299 301 302 304 306 308 310 313 315 316 317 317 317 317 317 317 317 316 315 315 315 316 317 318 320 320 320 320 319 318 316 314 312 312 312 314 314
277 276 275 274 274 274 273 269 269 270 274 277 278 278 278 280 282 284 286 289 291 289 287 288 291 293 294 292 289 288 286 285 286 288 288 287 285 282 280 281 283 286 288 290 293 295 296 298 300 301 302 303 306 308 311 313 314 315 316 315 315 316 316 317 317 316 315 315 315 315 315 316 318 319 319 318 318 317 315 312 310 308 309 312 313
278 276 274 273 272 273 271 268 268 271 275 277 277 277 278 277 279 284 287 289 290 289 287 287 289 292 294 293 292 288 285 285 287 289 288 286 284 282 281 280 282 285 287 290 293 295 297 299 300 301 302 304 307 309 310 311 313 314 314 314 315 315 317 317 317 317 316 316 315 314 314 315 316 317 317 317 317 318 317 313 309 307 306 309 312
278 275 272 270 271 271 269 267 268 272 276 276 276 278 277 275 279 284 288 290 291 290 288 288 289 290 291 292 291 289 288 288 287 287 288 286 282 281 281 280 281 284 287 290 293 295 297 299 300 302 304 306 307 308 309 311 313 313 313 314 314 316 317 317 317 316 316 316 315 314 314 314 315 316 316 316 317 319 319 314 310 308 306 309 312
277 274 271 270 271 271 269 267 269 273 275 275 279 281 277 274 278 284 287 289 290 291 290 289 290 290 290 290 289 293 295 291 285 286 287 285 283 281 280 280 282 284 287 291 294 296 297 299 300 303 305 306 306 307 309 311 312 313 313 314 315 316 317 316 316 315 315 315 315 314 313 312 313 314 315 315 315 318 319 315 311 309 309 310 311
276 274 272 271 271 272 269 266 268 271 273 277 281 279 276 275 277 280 283 285 288 290 289 290 291 290 290 289 289 293 296 290 285 286 286 285 284 283 281 280 282 285 288 292 294 296 297 299 300 303 304 305 306 307 310 311 312 312 313 314 315 316 316 315 314 314 314 314 313 313 312 311 310 311 313 313 314 317 317 313 310 310 310 311 311
275 274 273 272 272 271 267 264 266 271 275 277 276 274 276 277 275 277 281 284 288 289 290 290 292 292 291 291 290 289 287 285 285 286 285 285 284 283 283 283 284 286 288 291 294 296 298 299 301 303 304 305 306 308 309 311 311 311 312 314 314 314 314 314 314 313 313 312 313 313 313 312 310 309 311 311 312 315 315 311 309 310 311 312 311
275 274 274 273 271 269 265 263 265 270 274 274 273 276 279 279 277 278 281 284 288 289 290 291 292 293 292 291 289 284 281 282 284 284 284 284 284 284 284 285 286 287 288 290 294 296 298 301 302 303 304 305 307 308 309 310 310 311 312 313 313 313 314 314 315 315 314 313 313 314 314 314 312 309 309 309 311 314 312 308 308 310 311 312 311
274 274 275 273 270 267 262 261 264 267 269 270 276 281 280 279 279 278 279 284 288 290 291 292 292 292 289 288 286 281 280 282 284 284 284 284 284 285 286 287 288 289 289 291 294 297 299 301 302 303 304 305 307 308 308 309 309 310 311 312 313 314 315 315 315 314 313 312 312 314 314 314 313 309 308 309 311 313 310 307 308 310 311 311 311
274 275 274 272 268 264 259 259 263 264 264 267 277 283 281 281 281 279 282 288 292 293 293 293 292 290 287 284 282 282 283 285 285 285 284 283 285 287 288 288 287 288 291 293 295 297 300 301 302 303 304 305 307 307 308 308 308 309 311 313 315 316 317 315 313 310 309 309 311 312 313 313 313 311 310 311 312 312 309 307 308 310 310 311 311
274 274 273 270 266 261 257 258 261 261 262 266 275 280 279 281 284 284 287 291 293 294 295 295 292 288 285 283 283 284 286 287 288 286 284 283 284 287 288 288 288 289 291 294 296 298 300 301 301 303 304 306 307 307 308 308 308 310 312 313 316 317 316 315 312 309 308 309 310 311 312 312 312 312 312 313 312 310 308 308 309 310 310 311 311
272 273 272 269 264 258 255 258 259 259 262 266 272 276 277 280 283 287 290 292 293 294 296 297 292 287 284 284 285 286 287 289 290 289 286 285 286 287 287 287 289 291 293 294 296 298 299 300 301 304 306 307 308 308 308 307 308 309 312 314 315 316 316 315 313 312 311 311 312 312 312 312 311 312 312 312 311 310 310 310 310 310 310 310 311
271 273 272 267 260 255 254 257 258 259 261 266 272 275 279 283 286 290 293 294 295 296 297 296 293 290 288 287 287 288 289 290 290 290 290 289 289 288 288 288 290 292 294 295 295 297 299 300 304 307 309 309 309 308 306 306 308 310 312 314 314 315 315 316 316 315 314 314 313 313 313 312 312 313 313 312 312 312 312 311 310 309 309 311 312
270 272 271 265 257 253 253 256 256 258 260 265 271 277 282 286 290 293 295 296 297 298 298 296 295 294 292 291 290 290 290 289 287 287 288 289 290 290 290 290 291 293 294 295 296 299 302 304 307 309 310 310 311 311 309 308 309 311 313 313 313 314 315 316 316 316 315 314 314 314 313 313 314 314 313 313 313 313 312 311 310 309 310 312 312
269 271 269 262 255 252 252 253 254 256 259 265 270 276 281 285 289 292 294 296 297 296 296 296 296 295 293 292 291 291 290 288 286 285 286 287 289 290 291 291 291 292 293 295 297 303 306 307 308 309 309 311 314 316 315 313 312 313 313 312 312 314 315 315 315 315 315 314 314 315 315 314 314 314 314 314 313 312 311 311 311 311 312 313 312
266 269 268 261 254 252 251 251 253 255 259 265 272 277 282 286 289 292 294 295 295 294 294 294 294 294 293 291 291 290 289 288 286 286 287 288 289 289 290 290 291 292 295 297 300 305 307 307 308 309 309 311 314 316 316 315 315 314 313 313 313 314 314 314 315 315 314 315 316 316 315 315 315 315 314 313 311 311 311 312 313 314 314 314 314
264 268 267 261 255 252 251 251 253 255 259 265 273 279 284 287 289 292 294 294 293 292 293 293 294 294 293 291 289 287 286 285 285 286 287 288 288 288 289 290 292 295 298 300 302 305 307 307 309 310 310 310 312 314 316 317 317 316 315 313 313 313 313 313 315 316 315 316 317 317 315 315 315 315 313 311 310 311 312 314 315 315 316 316 316
261 265 265 261 255 252 251 251 251 254 258 264 272 279 283 285 288 291 292 292 292 291 292 294 295 294 292 288 285 284 284 284 284 286 286 287 288 289 291 293 296 298 300 301 303 304 306 307 308 308 308 309 311 314 316 317 319 318 316 314 313 313 313 313 315 316 317 317 317 315 314 315 315 313 311 310 311 313 314 316 317 316 317 317 317
259 263 263 261 256 252 250 250 251 254 257 263 270 277 281 284 286 288 289 290 291 292 293 295 295 293 288 284 283 283 284 284 286 287 288 289 290 292 295 296 298 299 299 300 302 303 305 306 306 306 307 309 312 315 316 318 319 318 316 314 313 313 313 314 315 317 317 316 315 314 314 314 313 312 311 311 313 316 317 317 317 317 317 317 316
257 260 261 260 255 251 250 250 252 255 258 263 270 276 280 282 284 287 289 291 292 293 295 295 293 289 285 283 282 283 285 287 288 289 290 292 294 295 296 296 297 298 298 299 300 302 303 304 304 305 306 309 312 315 317 318 318 316 314 313 313 313 313 314 316 316 315 315 314 315 314 313 313 312 313 314 316 317 318 317 316 316 316 316 315
255 257 259 257 253 250 250 250 252 256 258 263 270 275 278 281 284 287 290 292 293 294 296 295 290 286 283 284 285 286 288 289 290 292 293 295 296 296 296 296 297 297 297 298 298 300 301 302 303 305 307 310 313 315 316 317 316 314 312 312 312 313 314 315 315 315 315 315 315 315 314 313 313 314 315 317 317 318 317 316 316 315 315 315 315
253 255 257 256 251 248 249 251 253 256 259 264 269 274 278 281 283 287 290 293 294 295 296 294 289 284 283 284 285 286 287 289 291 294 296 296 296 295 296 297 297 297 297 297 298 300 302 302 304 306 309 311 312 314 316 315 313 312 311 311 312 313 315 315 315 315 316 315 315 315 314 315 316 317 317 318 317 317 317 316 316 315 315 315 314
251 253 255 254 249 247 248 250 253 256 260 264 269 274 279 281 283 286 289 291 293 295 295 292 287 284 282 282 283 285 288 290 294 296 296 295 295 296 298 298 298 298 298 299 300 302 303 303 305 308 310 311 312 314 314 313 311 311 311 312 313 314 315 315 315 316 316 316 316 316 317 317 317 317 317 317 317 316 316 316 315 314 314 314 314
250 251 253 253 248 246 247 250 253 256 260 263 269 274 278 280 282 284 287 290 293 294 293 289 285 282 281 281 284 287 291 293 295 295 294 295 297 300 300 299 299 300 301 301 302 303 304 305 307 309 309 310 311 313 312 311 310 311 312 313 314 315 315 315 316 316 316 317 317 318 318 318 318 318 317 317 317 317 317 316 315 315 315 315 315
248 249 252 251 247 245 246 249 252 255 259 263 269 274 278 279 281 283 285 289 292 293 290 286 282 280 280 283 286 289 292 294 294 294 295 298 300 301 301 300 301 302 302 303 304 305 306 307 308 309 309 310 311 312 311 311 312 312 313 314 315 315 316 317 317 318 318 319 319 320 320 319 319 318 318 318 318 318 318 317 316 316 316 316 316
246 248 250 250 246 244 246 249 252 255 258 263 268 273 276 278 279 281 283 287 290 291 287 282 279 279 281 284 287 290 293 294 295 296 298 300 301 301 300 300 301 302 302 303 305 306 307 308 309 309 310 310 311 311 312 313 313 313 314 315 315 316 317 318 319 320 320 321 321 321 320 320 319 319 319 319 319 319 319 318 317 318 318 318 317
245 247 249 249 246 244 245 248 251 254 258 262 267 272 275 277 278 279 282 285 288 288 285 280 278 278 281 285 288 291 294 296 298 299 300 300 299 300 299 299 300 301 303 304 307 308 308 309 310 310 310 310 311 312 313 314 314 314 314 315 316 317 318 319 320 321 322 322 321 321 320 320 320 319 319 320 320 319 319 318 318 319 319 319 319
244 246 248 248 246 244 244 247 250 253 256 261 265 270 273 275 277 279 281 283 285 286 283 280 279 280 283 287 290 294 297 299 300 300 300 299 299 300 300 301 302 303 304 306 307 308 309 310 310 310 310 311 312 313 314 313 313 314 315 316 317 318 319 320 321 321 322 322 321 321 321 321 320 320 320 320 320 320 320 319 319 320 320 320 320
243 245 247 248 246 245 244 246 249 252 255 259 263 267 271 275 278 279 280 281 283 284 283 281 281 283 286 289 293 296 299 300 300 299 299 299 299 300 301 302 303 305 306 307 308 309 309 310 310 311 312 313 314 314 313 313 314 315 316 317 318 319 319 320 322 322 322 323 323 322 322 322 321 321 321 322 322 321 320 319 320 321 322 321 321
243 245 246 247 247 246 245 246 249 252 254 257 261 266 271 275 278 279 278 279 281 283 284 284 284 286 289 293 296 299 299 299 298 298 298 299 300 301 302 303 304 306 307 308 309 309 310 310 311 312 314 314 314 314 314 314 315 316 316 317 318 319 320 321 322 323 324 324 324 324 323 323 323 324 324 325 325 323 322 322 322 323 323 322 322
243 244 246 247 248 247 246 246 248 251 252 256 260 265 270 275 277 277 277 278 281 283 284 284 285 288 291 295 299 299 298 298 298 298 298 300 301 302 302 303 305 306 308 309 310 310 310 311 313 315 315 315 314 314 314 315 316 316 316 317 319 320 321 322 323 324 325 325 325 325 325 326 326 327 327 327 326 324 323 323 323 325 324 323 323
244 244 245 247 248 247 246 245 247 250 251 254 259 264 270 274 276 277 278 279 280 281 282 283 286 288 292 296 298 298 298 298 298 298 299 301 301 302 303 305 306 308 310 311 310 311 312 314 316 316 315 314 314 314 315 315 315 316 316 318 319 320 321 323 324 325 326 328 329 329 329 329 329 328 327 325 324 323 322 322 324 326 326 325 325
244 244 245 246 248 247 246 245 246 248 250 253 258 264 268 273 276 278 279 279 279 280 281 283 286 289 292 295 296 297 297 298 298 299 300 301 301 302 304 307 308 310 311 311 310 312 314 316 316 315 314 314 314 314 314 314 314 315 317 319 320 321 323 325 327 328 329 332 333 332 331 331 330 330 328 326 324 324 324 323 324 326 327 327 326
244 244 244 246 247 247 247 246 246 248 250 252 257 263 268 273 276 277 278 278 279 280 281 283 286 289 291 294 295 295 296 297 297 298 299 300 301 303 306 309 310 311 311 310 311 313 315 316 315 314 313 314 314 313 313 314 315 316 318 320 321 323 325 328 330 331 332 334 334 333 332 332 332 332 331 329 328 327 326 326 326 327 328 327 326
Height
5867 5866 5865 5865 5865 5864 5864 5863 5862 5862 5862 5862 5861 5861 5860 5859 5858 5858 5857 5856 5856 5856 5855 5855 5854 5853 5853 5852 5851 5851 5850 5849 5849 5848 5847 5847 5846 5846 5846 5845 5844 5843 5842 5842 5841 5841 5840 5839 5839 5838 5837 5835 5834 5832 5831 5830 5829 5828 5826 5825 5823 5822 5820 5819 5817 5816 5814 5813 5811 5809 5807 5806 5804 5803 5801 5800 5799 5797 5795 5794 5792 5791 5789 5788 5786
5865 5865 5864 5864 5863 5863 5862 5861 5861 5860 5860 5860 5860 5859 5858 5858 5857 5856 5856 5855 5855 5855 5855 5854 5853 5852 5851 5851 5850 5850 5849 5848 5848 5847 5846 5846 5845 5845 5844 5844 5843 5842 5841 5841 5840 5840 5839 5838 5838 5837 5835 5834 5832 5831 5830 5828 5827 5826 5825 5823 5821 5820 5818 5817 5816 5814 5813 5811 5809 5807 5805 5804 5802 5800 5799 5797 5796 5795 5793 5791 5790 5788 5787 5785 5783
5864 5864 5863 5862 5862 5861 5861 5860 5859 5859 5858 5858 5858 5857 5857 5856 5856 5855 5855 5854 5854 5854 5854 5853 5852 5851 5850 5850 5849 5849 5848 5847 5847 5846 5845 5845 5844 5844 5843 5843 5842 5841 5841 5840 5839 5839 5838 5837 5836 5835 5834 5832 5831 5829 5828 5827 5826 5824 5823 5821 5820 5818 5817 5815 5814 5812 5810 5809 5807 5805 5803 5801 5799 5798 5796 5795 5794 5792 5791 5789 5787 5786 5784 5782 5781
5863 5862 5861 5861 5860 5860 5859 5858 5857 5857 5857 5857 5857 5856 5855 5855 5855 5854 5854 5853 5853 5853 5852 5851 5851 5850 5849 5849 5848 5848 5847 5846 5846 5845 5844 5844 5843 5842 5842 5842 5841 5840 5840 5839 5838 5838 5837 5836 5835 5834 5832 5831 5829 5828 5827 5825 5824 5823 5821 5819 5818 5816 5815 5813 5812 5810 5808 5807 5805 5803 5801 5799 5797 5796 5794 5793 5791 5790 5788 5787 5785 5783 5782 5780 5778
5861 5861 5860 5859 5859 5858 5858 5857 5856 5855 5855 5855 5855 5855 5854 5854 5853 5853 5853 5853 5852 5852 5851 5850 5849 5849 5848 5848 5847 5847 5846 5845 5845 5844 5843 5843 5842 5842 5841 5840 5840 5839 5839 5838 5837 5837 5836 5835 5834 5832 5831 5829 5828 5827 5825 5824 5822 5821 5819 5817 5816 5814 5813 5811 5810 5808 5806 5805 5803 5801 5799 5797 5795 5794 5792 5791 5789 5788 5786 5784 5783 5781 5779 5777 5775
5860 5859 5858 5858 5857 5857 5856 5855 5854 5854 5854 5854 5854 5853 5853 5852 5852 5852 5852 5852 5851 5851 5850 5849 5848 5847 5847 5846 5846 5845 5845 5844 5843 5843 5842 5842 5841 5841 5840 5839 5839 5838 5838 5837 5836 5835 5835 5833 5832 5831 5829 5828 5826 5825 5824 5822 5821 5819 5818 5816 5814 5812 5811 5809 5808 5806 5804 5803 5801 5799 5797 5795 5793 5791 5790 5788 5787 5785 5784 5782 5780 5778 5776 5774 5772
5858 5858 5857 5856 5856 5855 5855 5853 5853 5853 5853 5853 5852 5851 5851 5851 5851 5851 5851 5850 5850 5849 5848 5848 5847 5846 5846 5845 5844 5844 5843 5843 5842 5842 5841 5840 5840 5839 5839 5838 5838 5837 5836 5836 5835 5834 5833 5832 5831 5829 5828 5826 5825 5824 5822 5821 5819 5817 5816 5814 5812 5811 5809 5807 5806 5804 5803 5801 5799 5796 5795 5793 5791 5789 5787 5786 5784 5783 5781 5779 5777 5775 5773 5770 5768
5856 5856 5855 5855 5854 5854 5853 5852 5851 5851 5851 5851 5851 5850 5850 5850 5849 5849 5849 5849 5848 5848 5847 5846 5846 5845 5844 5843 5843 5842 5842 5841 5841 5840 5840 5839 5839 5838 5837 5837 5836 5836 5835 5834 5834 5833 5832 5830 5829 5828 5826 5825 5824 5822 5821 5819 5817 5816 5814 5812 5811 5809 5807 5805 5804 5802 5801 5799 5797 5795 5792 5790 5788 5786 5784 5783 5781 5779 5778 5776 5774 5771 5769 5767 5764
5855 5854 5854 5853 5853 5852 5851 5850 5850 5850 5850 5850 5850 5849 5849 5848 5848 5848 5848 5848 5847 5846 5846 5845 5844 5843 5842 5842 5841 5841 5840 5840 5840 5839 5838 5838 5837 5837 5836 5835 5835 5834 5834 5833 5832 5831 5830 5829 5827 5826 5825 5823 5822 5821 5819 5818 5816 5814 5812 5811 5809 5807 5806 5804 5802 5800 5798 5797 5795 5793 5790 5788 5786 5784 5782 5780 5778 5776 5774 5772 5770 5767 5765 5763 5760
5853 5853 5852 5851 5851 5850 5850 5849 5849 5849 5848 5848 5848 5848 5847 5847 5847 5847 5846 5846 5845 5845 5844 5844 5843 5842 5841 5841 5840 5839 5839 5839 5838 5838 5837 5836 5836 5835 5835 5834 5833 5833 5832 5832 5831 5830 5829 5827 5825 5824 5823 5822 5821 5819 5818 5816 5814 5813 5811 5809 5807 5805 5804 5802 5800 5798 5796 5794 5792 5790 5788 5785 5783 5781 5779 5777 5775 5773 5771 5768 5766 5764 5761 5759 5756
5851 5851 5850 5849 5849 5849 5848 5847 5847 5847 5847 5847 5847 5846 5846 5846 5846 5845 5845 5845 5844 5843 5843 5842 5841 5841 5840 5839 5839 5838 5838 5837 5837 5836 5835 5835 5834 5834 5833 5833 5832 5832 5831 5830 5829 5828 5827 5825 5824 5823 5821 5820 5819 5818 5816 5814 5813 5811 5809 5807 5805 5803 5802 5800 5798 5796 5794 5791 5789 5787 5785 5783 5781 5778 5776 5774 5772 5769 5767 5765 5762 5760 5757 5754 5752
5849 5849 5848 5847 5847 5847 5846 5845 5845 5845 5845 5845 5845 5845 5844 5844 5844 5844 5844 5844 5843 5842 5841 5841 5840 5839 5839 5838 5837 5837 5836 5836 5835 5835 5834 5833 5833 5832 5832 5831 5831 5830 5829 5829 5828 5827 5825 5823 5822 5821 5819 5818 5817 5816 5814 5813 5811 5809 5807 5805 5803 5801 5799 5797 5796 5794 5791 5789 5787 5784 5782 5780 5778 5775 5773 5771 5768 5766 5763 5761 5758 5756 5753 5750 5747
5847 5846 5846 5845 5845 5844 5844 5843 5844 5844 5844 5844 5844 5843 5843 5843 5843 5842 5842 5842 5842 5841 5840 5839 5839 5838 5837 5837 5836 5835 5835 5834 5834 5833 5832 5832 5831 5831 5830 5830 5829 5828 5828 5827 5826 5825 5823 5822 5820 5819 5818 5816 5815 5814 5812 5810 5809 5807 5805 5803 5801 5799 5797 5795 5793 5791 5789 5786 5784 5781 5779 5777 5774 5772 5770 5767 5765 5762 5760 5757 5755 5752 5749 5746 5743
5845 5844 5844 5843 5843 5842 5842 5842 5842 5843 5843 5843 5842 5842 5841 5841 5841 5841 5840 5840 5840 5839 5839 5838 5837 5836 5836 5835 5834 5834 5833 5833 5832 5831 5831 5830 5830 5829 5829 5828 5828 5827 5826 5825 5824 5823 5821 5820 5818 5817 5816 5815 5813 5812 5810 5808 5806 5805 5803 5800 5798 5796 5794 5792 5790 5788 5786 5783 5781 5778 5776 5773 5771 5768 5766 5764 5761 5759 5756 5754 5751 5748 5745 5742 5739
5843 5842 5842 5842 5841 5840 5840 5840 5840 5841 5841 5841 5840 5840 5839 5839 5839 5839 5839 5838 5838 5838 5837 5836 5836 5835 5834 5833 5833 5832 5832 5831 5830 5830 5829 5829 5828 5828 5827 5827 5826 5825 5824 5823 5822 5821 5819 5818 5817 5815 5814 5813 5811 5810 5808 5806 5804 5802 5800 5798 5796 5793 5791 5789 5787 5785 5782 5780 5777 5775 5772 5770 5767 5764 5762 5760 5757 5755 5752 5750 5747 5744 5741 5739 5735
5840 5840 5840 5840 5839 5839 5838 5838 5839 5839 5839 5838 5838 5838 5837 5837 5837 5837 5837 5837 5836 5836 5836 5835 5834 5833 5832 5831 5831 5830 5829 5829 5828 5828 5827 5827 5826 5826 5825 5825 5824 5823 5823 5822 5821 5819 5818 5817 5815 5814 5812 5811 5809 5807 5806 5804 5802 5800 5798 5796 5793 5791 5788 5786 5784 5781 5779 5777 5774 5771 5769 5766 5763 5761 5758 5756 5753 5751 5748 5745 5743 5740 5737 5734 5731
5838 5838 5838 5837 5837 5837 5836 5836 5837 5837 5836 5836 5836 5836 5836 5835 5835 5835 5835 5835 5834 5834 5834 5833 5832 5831 5830 5829 5829 5828 5828 5827 5826 5826 5826 5825 5825 5824 5824 5823 5822 5822 5821 5820 5819 5818 5816 5815 5814 5812 5810 5808 5807 5805 5804 5802 5800 5798 5796 5793 5791 5788 5786 5783 5781 5778 5776 5773 5771 5768 5765 5762 5760 5757 5754 5752 5749 5746 5743 5741 5738 5735 5732 5729 5726
5836 5835 5835 5835 5835 5834 5834 5834 5834 5834 5834 5834 5834 5834 5834 5834 5833 5833 5833 5833 5832 5832 5832 5831 5830 5829 5828 5827 5826 5826 5826 5825 5825 5824 5824 5823 5823 5822 5822 5822 5821 5820 5819 5819 5817 5816 5815 5813 5812 5810 5808 5806 5805 5803 5802 5800 5798 5796 5794 5791 5788 5786 5783 5780 5777 5775 5772 5770 5767 5764 5761 5759 5756 5753 5750 5747 5744 5742 5739 5736 5733 5730 5727 5724 5721
5833 5833 5833 5833 5832 5832 5832 5831 5831 5831 5831 5831 5831 5831 5832 5832 5831 5831 5831 5831 5830 5830 5830 5829 5828 5827 5826 5825 5825 5824 5824 5823 5823 5822 5822 5821 5821 5820 5820 5820 5819 5818 5818 5817 5816 5814 5813 5812 5810 5808 5806 5804 5802 5801 5799 5798 5796 5793 5791 5788 5785 5783 5780 5777 5775 5771 5769 5766 5763 5761 5758 5755 5752 5749 5746 5743 5740 5737 5734 5731 5728 5725 5722 5719 5716
5831 5831 5831 5830 5830 5829 5829 5829 5828 5828 5828 5828 5828 5829 5829 5829 5829 5829 5829 5829 5828 5828 5827 5827 5826 5825 5824 5823 5822 5821 5820 5820 5820 5820 5820 5819 5819 5818 5818 5818 5817 5817 5816 5815 5814 5813 5811 5809 5808 5806 5804 5802 5800 5798 5797 5795 5793 5790 5787 5785 5782 5780 5777 5775 5772 5768 5765 5762 5760 5757 5754 5751 5748 5745 5742 5738 5735 5732 5729 5726 5722 5719 5716 5714 5711
5828 5828 5828 5828 5827 5827 5827 5826 5825 5825 5825 5825 5826 5827 5827 5827 5827 5827 5827 5827 5826 5826 5825 5825 5824 5823 5822 5821 5820 5818 5817 5818 5818 5818 5818 5817 5817 5817 5816 5816 5815 5815 5814 5813 5812 5811 5809 5807 5805 5803 5802 5800 5798 5796 5794 5792 5790 5787 5784 5781 5779 5777 5774 5771 5768 5765 5761 5758 5756 5753 5750 5747 5744 5740 5737 5734 5731 5728 5724 5721 5717 5714 5711 5708 5705
5826 5826 5826 5825 5825 5824 5824 5824 5823 5822 5822 5823 5825 5825 5825 5824 5825 5825 5825 5825 5824 5824 5823 5823 5822 5821 5820 5820 5818 5816 5815 5816 5816 5816 5815 5815 5815 5815 5814 5814 5813 5813 5811 5811 5810 5809 5807 5804 5802 5801 5799 5797 5795 5793 5791 5789 5786 5783 5781 5778 5776 5773 5771 5768 5764 5761 5758 5755 5752 5748 5745 5742 5739 5736 5732 5729 5726 5723 5719 5715 5712 5709 5706 5703 5700
5823 5823 5823 5823 5822 5822 5822 5821 5821 5820 5820 5821 5823 5822 5822 5822 5823 5822 5822 5822 5822 5822 5821 5820 5820 5819 5818 5817 5816 5814 5814 5813 5813 5813 5813 5813 5812 5812 5812 5811 5811 5810 5809 5808 5808 5806 5804 5802 5800 5798 5796 5794 5792 5790 5788 5786 5783 5780 5777 5775 5772 5769 5766 5763 5760 5757 5753 5750 5747 5744 5741 5737 5734 5731 5728 5724 5721 5718 5714 5710 5707 5704 5701 5698 5695
5821 5820 5821 5821 5820 5820 5819 5819 5818 5817 5818 5819 5820 5819 5819 5820 5820 5820 5820 5820 5819 5819 5818 5818 5817 5816 5815 5814 5813 5812 5812 5811 5811 5811 5811 5811 5810 5810 5809 5809 5808 5808 5807 5806 5805 5804 5802 5800 5798 5796 5793 5791 5789 5787 5785 5783 5780 5777 5774 5771 5768 5765 5762 5759 5755 5752 5749 5746 5743 5739 5736 5733 5730 5726 5723 5719 5716 5713 5709 5706 5702 5699 5696 5693 5690
5818 5818 5818 5818 5818 5817 5817 5817 5816 5816 5816 5816 5817 5818 5818 5818 5817 5817 5818 5817 5817 5817 5816 5815 5815 5814 5813 5812 5811 5810 5810 5810 5809 5809 5809 5808 5808 5807 5807 5806 5805 5805 5805 5803 5802 5801 5799 5797 5795 5793 5790 5788 5786 5784 5782 5779 5776 5773 5770 5767 5764 5761 5757 5754 5751 5748 5744 5741 5738 5734 5731 5728 5724 5721 5718 5714 5711 5708 5704 5701 5698 5694 5691 5688 5685
5815 5815 5815 5816 5815 5815 5815 5814 5814 5814 5814 5814 5815 5816 5816 5815 5815 5816 5816 5815 5815 5814 5814 5813 5812 5811 5810 5809 5809 5808 5808 5808 5807 5807 5807 5806 5805 5805 5804 5803 5803 5802 5801 5800 5799 5798 5796 5794 5792 5790 5787 5785 5783 5781 5778 5775 5772 5769 5766 5763 5760 5756 5753 5750 5747 5743 5740 5736 5733 5729 5726 5723 5719 5715 5712 5709 5706 5703 5699 5696 5693 5689 5686 5683 5680
5813 5813 5813 5813 5813 5813 5813 5812 5812 5812 5812 5812 5813 5813 5813 5813 5813 5814 5814 5813 5813 5812 5812 5811 5810 5809 5808 5807 5807 5806 5806 5805 5805 5805 5804 5804 5803 5802 5801 5801 5800 5799 5798 5797 5796 5795 5793 5791 5789 5786 5784 5782 5779 5777 5774 5771 5768 5765 5762 5759 5756 5753 5749 5746 5742 5739 5735 5732 5728 5725 5722 5718 5714 5710 5707 5705 5701 5698 5695 5691 5688 5684 5681 5678 5675
5810 5810 5810 5810 5811 5811 5810 5810 5810 5810 5810 5811 5811 5810 5810 5811 5811 5811 5811 5811 5811 5810 5809 5808 5808 5807 5806 5805 5805 5804 5804 5803 5803 5802 5802 5801 5801 5800 5799 5798 5797 5796 5795 5794 5793 5792 5790 5788 5785 5783 5781 5778 5776 5773 5770 5767 5764 5762 5759 5756 5752 5749 5745 5742 5738 5734 5731 5728 5724 5720 5717 5714 5710 5706 5703 5700 5696 5693 5690 5687 5683 5679 5676 5673 5671
5808 5807 5808 5808 5808 5808 5808 5808 5808 5808 5808 5809 5809 5808 5808 5809 5809 5809 5809 5809 5808 5808 5807 5806 5805 5805 5804 5803 5803 5802 5801 5801 5800 5799 5799 5799 5798 5797 5796 5795 5794 5793 5792 5791 5790 5788 5786 5784 5782 5780 5778 5775 5772 5770 5766 5764 5761 5758 5755 5752 5749 5745 5741 5737 5734 5730 5727 5724 5720 5716 5713 5709 5705 5702 5698 5695 5692 5689 5685 5682 5678 5675 5672 5669 5666
5805 5805 5805 5806 5806 5806 5806 5806 5806 5806 5806 5806 5806 5806 5806 5806 5806 5806 5806 5806 5805 5805 5804 5803 5803 5803 5802 5801 5800 5799 5799 5798 5797 5797 5796 5796 5795 5795 5794 5792 5791 5790 5789 5787 5786 5785 5783 5780 5778 5777 5774 5771 5768 5766 5763 5760 5757 5754 5751 5748 5745 5741 5737 5733 5730 5726 5723 5719 5715 5711 5708 5704 5701 5697 5694 5691 5687 5684 5681 5678 5674 5671 5668 5664 5661
5802 5803 5803 5803 5803 5803 5803 5804 5804 5804 5804 5804 5804 5804 5803 5803 5803 5803 5803 5803 5803 5802 5801 5801 5801 5800 5799 5798 5797 5797 5796 5795 5795 5794 5794 5793 5793 5792 5791 5790 5788 5787 5785 5783 5782 5781 5780 5777 5775 5773 5770 5767 5765 5762 5759 5756 5754 5750 5747 5744 5741 5737 5733 5730 5726 5722 5719 5715 5711 5707 5704 5700 5697 5693 5690 5686 5683 5680 5677 5674 5670 5666 5663 5659 5656
5800 5800 5801 5801 5801 5801 5802 5802 5802 5801 5801 5801 5802 5802 5802 5801 5801 5801 5801 5801 5800 5800 5799 5799 5798 5797 5797 5796 5795 5794 5793 5793 5792 5792 5791 5791 5790 5789 5788 5787 5785 5784 5782 5780 5778 5778 5777 5774 5771 5769 5766 5764 5761 5758 5756 5753 5750 5747 5744 5740 5736 5733 5729 5726 5722 5718 5714 5711 5707 5703 5700 5696 5692 5689 5685 5682 5679 5676 5673 5669 5666 5662 5658 5654 5651
5797 5798 5798 5798 5798 5799 5799 5800 5799 5799 5799 5799 5799 5799 5799 5799 5799 5799 5799 5798 5798 5797 5797 5797 5796 5795 5794 5793 5792 5791 5791 5790 5790 5789 5788 5788 5787 5786 5785 5783 5782 5781 5779 5778 5775 5774 5773 5770 5768 5766 5763 5760 5758 5755 5752 5749 5746 5743 5739 5736 5732 5729 5725 5721 5718 5715 5711 5706 5703 5699 5695 5692 5688 5685 5682 5678 5676 5672 5668 5665 5661 5657 5653 5649 5645
5794 5795 5795 5795 5796 5796 5797 5797 5797 5797 5797 5797 5797 5797 5797 5797 5796 5796 5796 5796 5795 5795 5795 5794 5794 5793 5792 5791 5790 5789 5788 5788 5787 5786 5786 5785 5784 5783 5782 5781 5780 5778 5777 5775 5773 5771 5770 5767 5764 5762 5759 5756 5754 5752 5748 5745 5742 5739 5735 5731 5728 5725 5721 5717 5713 5711 5707 5702 5698 5695 5691 5688 5684 5681 5678 5675 5671 5668 5664 5660 5656 5652 5648 5644 5640
5791 5792 5793 5793 5793 5794 5795 5795 5795 5795 5795 5795 5795 5795 5795 5794 5794 5794 5794 5794 5793 5793 5793 5792 5791 5790 5789 5788 5787 5786 5786 5785 5785 5784 5783 5783 5782 5781 5780 5778 5777 5776 5774 5772 5770 5768 5766 5764 5761 5758 5756 5753 5750 5747 5744 5741 5737 5734 5730 5727 5723 5720 5717 5713 5709 5706 5702 5698 5694 5691 5687 5684 5680 5677 5674 5671 5667 5663 5659 5655 5651 5647 5643 5639 5636
5788 5789 5790 5790 5790 5792 5792 5793 5793 5793 5793 5793 5793 5793 5792 5792 5792 5792 5792 5792 5791 5791 5790 5790 5788 5787 5786 5785 5785 5784 5784 5783 5782 5782 5781 5780 5779 5778 5777 5776 5774 5773 5771 5769 5767 5764 5762 5760 5757 5754 5752 5749 5746 5743 5739 5736 5733 5729 5725 5722 5719 5715 5712 5709 5705 5701 5698 5694 5690 5687 5683 5680 5676 5673 5670 5666 5662 5658 5654 5650 5647 5643 5639 5635 5631
5785 5786 5787 5787 5788 5789 5789 5790 5790 5790 5790 5790 5790 5790 5790 5790 5789 5789 5789 5789 5789 5789 5788 5787 5786 5785 5784 5783 5783 5782 5782 5781 5780 5779 5778 5777 5777 5776 5774 5773 5771 5769 5767 5765 5763 5761 5758 5756 5753 5751 5748 5745 5742 5738 5735 5732 5728 5725 5721 5718 5715 5711 5707 5704 5701 5697 5694 5690 5686 5682 5679 5676 5672 5669 5665 5662 5658 5654 5650 5646 5642 5638 5635 5631 5627
5782 5783 5784 5784 5785 5786 5786 5787 5787 5788 5788 5788 5788 5788 5787 5787 5787 5787 5787 5787 5786 5786 5785 5784 5783 5782 5782 5781 5780 5780 5779 5779 5778 5777 5776 5775 5774 5772 5771 5769 5768 5766 5763 5761 5759 5757 5754 5752 5749 5747 5744 5741 5737 5734 5731 5727 5724 5720 5717 5714 5711 5708 5704 5700 5696 5693 5690 5686 5682 5678 5675 5671 5668 5665 5661 5657 5653 5649 5646 5642 5638 5634 5630 5626 5622
5778 5780 5780 5781 5782 5783 5783 5784 5784 5784 5785 5785 5785 5785 5785 5785 5784 5784 5784 5784 5783 5783 5782 5781 5781 5780 5779 5779 5778 5777 5777 5776 5775 5774 5773 5772 5771 5769 5768 5766 5764 5762 5760 5757 5755 5753 5751 5748 5746 5743 5740 5736 5733 5730 5726 5723 5719 5716 5712 5709 5707 5704 5701 5697 5692 5689 5685 5682 5678 5674 5671 5667 5664 5660 5657 5653 5649 5645 5641 5638 5633 5629 5626 5622 5618
5775 5776 5777 5778 5779 5780 5780 5781 5781 5781 5782 5782 5782 5782 5782 5782 5782 5781 5781 5781 5780 5780 5779 5779 5778 5778 5777 5776 5776 5775 5774 5773 5772 5771 5770 5769 5767 5766 5764 5762 5760 5758 5756 5754 5752 5749 5747 5744 5742 5739 5736 5732 5728 5725 5722 5719 5715 5712 5709 5705 5702 5699 5695 5692 5689 5684 5681 5677 5674 5670 5667 5663 5660 5656 5653 5649 5646 5641 5637 5633 5629 5625 5621 5617 5613
5772 5773 5774 5775 5776 5777 5777 5777 5778 5778 5779 5779 5780 5780 5780 5779 5779 5778 5778 5778 5777 5777 5776 5776 5776 5775 5774 5773 5773 5772 5771 5771 5770 5769 5767 5766 5764 5763 5761 5759 5757 5754 5752 5750 5748 5746 5743 5741 5738 5735 5731 5728 5724 5721 5718 5715 5711 5708 5705 5701 5698 5694 5691 5687 5684 5681 5677 5673 5670 5666 5663 5659 5655 5652 5648 5644 5641 5637 5633 5629 5625 5621 5617 5613 5609
5768 5769 5770 5772 5773 5774 5774 5774 5775 5775 5776 5776 5777 5777 5777 5776 5776 5775 5775 5775 5774 5774 5773 5773 5773 5772 5771 5771 5770 5769 5769 5768 5767 5765 5764 5763 5761 5760 5758 5755 5753 5751 5749 5747 5745 5742 5740 5737 5734 5731 5727 5723 5720 5717 5714 5711 5707 5704 5700 5697 5693 5690 5686 5683 5680 5677 5673 5669 5666 5662 5658 5655 5651 5647 5643 5640 5636 5632 5628 5623 5620 5616 5613 5609 5605
5765 5766 5767 5769 5770 5770 5771 5771 5772 5772 5773 5774 5774 5774 5774 5773 5773 5773 5772 5772 5772 5771 5771 5770 5770 5769 5769 5768 5767 5767 5766 5765 5763 5762 5761 5759 5758 5756 5754 5752 5750 5748 5746 5743 5741 5739 5736 5733 5730 5726 5723 5719 5716 5713 5710 5706 5703 5699 5696 5693 5689 5685 5682 5679 5675 5672 5669 5665 5662 5658 5654 5650 5646 5642 5639 5636 5632 5628 5624 5619 5615 5612 5608 5605 5601
5761 5762 5764 5765 5766 5767 5768 5768 5769 5769 5770 5771 5771 5771 5771 5771 5770 5770 5769 5769 5769 5769 5768 5768 5767 5767 5766 5766 5765 5764 5763 5761 5760 5758 5757 5755 5754 5752 5750 5748 5746 5744 5742 5740 5738 5735 5732 5729 5726 5722 5718 5715 5712 5709 5705 5702 5699 5696 5692 5689 5685 5681 5678 5675 5671 5668 5665 5662 5658 5654 5650 5646 5642 5638 5635 5631 5628 5624 5620 5616 5612 5608 5605 5601 5597
5758 5759 5760 5762 5763 5764 5765 5765 5765 5766 5767 5768 5768 5768 5768 5768 5767 5767 5767 5766 5766 5766 5765 5765 5765 5764 5763 5763 5762 5761 5759 5758 5756 5755 5753 5752 5750 5748 5746 5744 5742 5740 5738 5736 5733 5731 5727 5724 5721 5718 5714 5712 5709 5705 5702 5698 5695 5692 5688 5685 5681 5678 5674 5671 5668 5665 5661 5658 5654 5650 5646 5642 5638 5634 5630 5627 5623 5620 5616 5613 5609 5605 5601 5597 5593
5754 5755 5756 5758 5759 5760 5761 5762 5762 5763 5764 5765 5765 5765 5765 5764 5764 5764 5764 5763 5763 5763 5763 5762 5762 5761 5760 5759 5758 5757 5756 5754 5753 5751 5750 5748 5746 5745 5743 5741 5739 5736 5734 5732 5729 5726 5723 5720 5717 5714 5711 5708 5705 5702 5698 5695 5691 5688 5684 5681 5678 5675 5671 5668 5665 5661 5658 5654 5650 5646 5642 5638 5634 5630 5626 5623 5619 5615 5612 5609 5606 5602 5598 5593 5589
5750 5752 5753 5754 5756 5757 5758 5759 5759 5760 5761 5761 5761 5761 5761 5761 5761 5761 5761 5760 5760 5760 5760 5759 5759 5758 5757 5756 5755 5754 5752 5751 5749 5748 5746 5745 5743 5741 5739 5737 5735 5733 5730 5728 5725 5722 5719 5716 5713 5710 5707 5704 5701 5697 5694 5691 5687 5684 5681 5678 5674 5671 5668 5665 5661 5658 5654 5650 5646 5642 5638 5634 5630 5626 5622 5619 5616 5612 5608 5605 5602 5599 5595 5590 5585
5747 5748 5749 5751 5752 5753 5754 5755 5756 5757 5757 5758 5758 5758 5758 5758 5758 5758 5757 5757 5757 5757 5756 5756 5755 5754 5753 5752 5751 5750 5749 5747 5746 5744 5743 5741 5740 5738 5736 5734 5731 5729 5726 5723 5720 5717 5714 5712 5709 5706 5703 5700 5696 5693 5690 5687 5684 5681 5677 5674 5671 5668 5665 5662 5658 5654 5651 5647 5644 5639 5635 5631 5627 5623 5619 5616 5613 5609 5605 5601 5598 5596 5592 5587 5582
5743 5744 5746 5747 5748 5750 5751 5752 5752 5753 5754 5754 5754 5754 5754 5754 5755 5755 5754 5754 5754 5753 5753 5752 5752 5751 5750 5749 5747 5746 5745 5744 5742 5741 5739 5738 5736 5734 5732 5730 5727 5725 5722 5719 5716 5713 5710 5708 5705 5702 5699 5696 5693 5689 5686 5683 5680 5677 5674 5671 5668 5665 5662 5658 5655 5651 5648 5645 5641 5636 5632 5629 5625 5621 5617 5613 5610 5606 5602 5599 5596 5592 5588 5583 5579
5738 5740 5742 5743 5744 5745 5747 5748 5749 5750 5751 5751 5751 5751 5751 5751 5752 5752 5751 5751 5751 5750 5750 5749 5748 5747 5746 5745 5744 5743 5742 5740 5739 5737 5736 5734 5732 5730 5728 5725 5723 5720 5718 5715 5712 5709 5706 5704 5701 5698 5695 5692 5689 5686 5683 5680 5677 5674 5671 5668 5665 5662 5659 5655 5652 5648 5644 5641 5638 5633 5630 5626 5622 5619 5615 5611 5607 5603 5599 5595 5592 5589 5585 5579 5575
5734 5736 5738 5739 5740 5742 5743 5744 5745 5746 5747 5748 5748 5748 5748 5748 5748 5748 5748 5748 5747 5747 5746 5745 5744 5743 5742 5741 5740 5739 5738 5737 5735 5734 5732 5730 5728 5726 5724 5721 5719 5716 5714 5711 5708 5705 5703 5700 5697 5694 5691 5689 5686 5682 5679 5676 5674 5671 5668 5665 5662 5658 5655 5652 5649 5645 5641 5638 5635 5631 5627 5623 5620 5616 5612 5608 5605 5601 5597 5593 5589 5585 5581 5577 5572